Kezdőlap
METAR-TAF:

METAR-TAF

Repülőterek :

Langlade County Airport

Antigo, Wisconsin, Amerikai Egyesült Államok

földrajzi szélesség: 45-09-15N, földrajzi hosszúság: 89-06-39W, magasság: 464 m

Jelenlegi meteorológiai megfigyelések

A jelentés 32 perccel ezelõtt készült, 19:15 UTC
Délkeleti szél 6 kt
Hőmérséklet 19°C
Páratartalom 83%
Légköri nyomás 1011 hPa
Látótávolság: 16.1 km
Borult 1600 lábon

METAR: KAIG 201915Z AUTO 14006KT 10SM OVC016 19/16 A2986 RMK AO2 T01870156

Idő: 14:47 (19:47 UTC)


TAF: hiányzik

Meteorológiai megfigyelések és előrejelzések több, mint 4000 repülőtéren (METAR és TAF jelentéseket).

A térképen piros és sárga pontok jelzik az elérhető meteorológiai állomásokat.

Mozgassa az egeret a pont fölött, hogy megjelenjen az állomás neve.

Azután kattintson az időjárási megfigyelések és előrejelzések megtekintéséhez.

A térkép megváltoztatása: kattintson a fekete keresztel jelölt zöld gombra ráközelítéshez, a vonallal jelölt zöld gombra távolításhoz, vagy a zöld nyilakra a szomszédos térképek eléréséhez.


METAR-TAF: